Weather History for Driggs, ID

Change the Weather History Date:

Sunday, November 4, 2012

  Actual Average (KRXE) Record (KRXE)
Temperature  
Mean Temperature 43 °F 37 °F  
Max Temperature 54 °F 48 °F 63 °F (1981)
Min Temperature 32 °F 26 °F 5 °F (2002)
Degree Days  
Heating Degree Days 22 28  
Month to date heating degree days 110  
Since 1 July heating degree days 1097  
Cooling Degree Days 0 0  
Month to date cooling degree days 0  
Year to date cooling degree days 208  
Moisture  
Dew Point 29 °F    
Average Humidity 62    
Maximum Humidity 89    
Minimum Humidity 40    
Precipitation  
Precipitation 0.00 in 0.03 in 0.32 in (2008)
Month to date precipitation 0.15  
Year to date precipitation 11.14  
Sea Level Pressure  
Sea Level Pressure 30.31 in    
Wind  
Wind Speed 6 mph (ESE)    
Max Wind Speed 10 mph    
Max Gust Speed -    
Visibility 10 miles    
Events      
T = Trace of Precipitation, MM = Missing Value Source: NWS Daily Summary

Daily Weather History Graph

Daily Weather History Graph

Search for Another Location

Airport:

Trip Planner

Search our weather history database for the weather conditions in past years. The results will help you decide how hot, cold, wet, or windy it might be!

Date:

Astronomy

Nov. 04, 2012 Rise Set
Actual Time 7:04 AM MST 5:10 PM MST
Civil Twilight 6:34 AM MST 5:40 PM MST
Nautical Twilight 6:00 AM MST 6:14 PM MST
Astronomical Twilight 5:27 AM MST 6:48 PM MST
Moon 9:50 PM MST (11/4) 11:52 AM MST (11/4)
Length of Visible Light 11h 05m
Length of Day
10h 05m
Waning Gibbous, 71% of the Moon is Illuminated
Nov 4
Waning Gibbous
Nov 6
Last Quarter
Nov 13
New
Nov 20
First Quarter
Nov 28
Full

Hourly Weather History & Observations

Time (MST) Temp. Windchill Dew Point Humidity Pressure Visibility Wind Dir Wind Speed Gust Speed Precip Events Conditions
12:56 AM 32.9 °F 27.5 °F 26.1 °F 76% 30.20 in 10.0 mi SE 5.8 mph - N/A   Partly Cloudy
1:56 AM 36.9 °F 31.4 °F 27.1 °F 68% 30.20 in 10.0 mi SE 6.9 mph - N/A   Clear
1:56 AM 36.0 °F 30.3 °F 27.1 °F 70% 30.20 in 10.0 mi SSE 6.9 mph - N/A   Clear
2:56 AM 36.9 °F 30.1 °F 27.1 °F 68% 30.20 in 10.0 mi SSE 9.2 mph - N/A   Clear
3:56 AM 34.9 °F 29.0 °F 26.1 °F 70% 30.22 in 10.0 mi SE 6.9 mph - N/A   Clear
5:56 AM 39.9 °F 33.9 °F 27.1 °F 60% 30.26 in 10.0 mi South 9.2 mph - N/A   Mostly Cloudy
6:56 AM 39.9 °F 35.1 °F 28.0 °F 63% 30.29 in 10.0 mi SE 6.9 mph - N/A   Overcast
7:56 AM 36.9 °F - 29.1 °F 74% 30.32 in 10.0 mi Calm Calm - N/A   Overcast
8:56 AM 43.9 °F 38.8 °F 30.0 °F 58% 30.31 in 10.0 mi SSE 9.2 mph - N/A   Mostly Cloudy
9:56 AM 45.0 °F 40.1 °F 32.9 °F 63% 30.34 in 10.0 mi West 9.2 mph - N/A   Partly Cloudy
10:56 AM 46.9 °F - 30.0 °F 52% 30.35 in 10.0 mi Variable 3.5 mph - N/A   Clear
11:56 AM 52.9 °F - 29.1 °F 40% 30.32 in 10.0 mi Calm Calm - N/A   Partly Cloudy
12:56 PM 52.9 °F - 30.0 °F 42% 30.30 in 10.0 mi West 6.9 mph - N/A   Partly Cloudy
1:56 PM 54.0 °F - 31.1 °F 42% 30.30 in 10.0 mi NNW 8.1 mph - N/A   Scattered Clouds
2:56 PM 54.9 °F - 31.1 °F 40% 30.29 in 10.0 mi North 10.4 mph - N/A   Clear
3:56 PM 54.0 °F - 31.1 °F 42% 30.32 in 10.0 mi North 9.2 mph - N/A   Clear
4:56 PM 50.9 °F - 32.0 °F 48% 30.31 in 10.0 mi NNE 5.8 mph - N/A   Scattered Clouds
5:56 PM 41.0 °F 35.2 °F 32.0 °F 70% 30.36 in 10.0 mi ENE 9.2 mph - N/A   Clear
6:56 PM 38.8 °F 35.4 °F 31.1 °F 74% 30.40 in 10.0 mi ENE 4.6 mph - N/A   Clear
7:56 PM 36.9 °F 33.1 °F 30.0 °F 76% 30.42 in 10.0 mi ESE 4.6 mph - N/A   Clear
8:56 PM 36.9 °F - 30.0 °F 76% 30.40 in 10.0 mi Calm Calm - N/A   Clear
10:56 PM 32.0 °F - 29.1 °F 89% 30.40 in 10.0 mi Calm Calm - N/A   Partly Cloudy